SHU313 LTFM-EFHK

Flight info

Callsign SHU313
Flight time N/A
Altitude 36000
Route IBLAX P727 BGS DCT GONGO DCT SOKRU DCT LARMU DCT KENIN DCT TOXAR/N0446F370 DCT BOKSU DCT GUNTA M857 SOKVA DCT ANAMA DCT KEMET DCT KEXLE DCT BEKNA DCT INTOR
Aircraft A320/M-SDE3FGHIRWY/LB1

Departure

Time N/A
Airport İstanbul Airport (LTFM)

Arrival

Time 2026-05-06 06:29
Airport Helsinki Vantaa Airport (EFHK)
Time Latitude Longitude Altitude Speed Heading
2026-05-06 05:14 52.59126 22.53545 35822 ft 456 kts
2026-05-06 05:14 52.65441 22.54826 35815 ft 458 kts
2026-05-06 05:15 52.71733 22.56759 35815 ft 459 kts
2026-05-06 05:15 52.78000 22.58826 35817 ft 459 kts
2026-05-06 05:16 52.84237 22.60746 35826 ft 459 kts
2026-05-06 05:16 52.90540 22.62603 35821 ft 460 kts
2026-05-06 05:17 52.96847 22.64456 35820 ft 460 kts
2026-05-06 05:17 53.03152 22.66332 35821 ft 460 kts
2026-05-06 05:18 53.09458 22.68242 35842 ft 460 kts
2026-05-06 05:18 53.15722 22.70140 35835 ft 461 kts
2026-05-06 05:19 53.22032 22.72048 35836 ft 461 kts
2026-05-06 05:19 53.28348 22.73958 35841 ft 461 kts
2026-05-06 05:20 53.34666 22.75892 35852 ft 461 kts
2026-05-06 05:20 53.40984 22.77827 35850 ft 462 kts
2026-05-06 05:21 53.47271 22.79759 35846 ft 462 kts
2026-05-06 05:21 53.53596 22.81695 35869 ft 462 kts
2026-05-06 05:22 53.59919 22.83650 35875 ft 462 kts
2026-05-06 05:22 53.66261 22.85621 35862 ft 463 kts
2026-05-06 05:23 53.72594 22.87581 35865 ft 463 kts
2026-05-06 05:23 53.82103 22.90538 35865 ft 463 kts
2026-05-06 05:24 53.88446 22.92528 35877 ft 463 kts
2026-05-06 05:24 53.94750 22.94511 35877 ft 463 kts
2026-05-06 05:25 54.01092 22.96508 35875 ft 463 kts
2026-05-06 05:25 54.07430 22.98507 35875 ft 463 kts
2026-05-06 05:26 54.13781 23.00524 35896 ft 464 kts
2026-05-06 05:26 54.20132 23.02538 35892 ft 464 kts
2026-05-06 05:27 54.26481 23.04551 35893 ft 464 kts
2026-05-06 05:27 54.32831 23.06582 35896 ft 464 kts
2026-05-06 05:28 54.39136 23.08606 35912 ft 464 kts
2026-05-06 05:28 54.45486 23.10653 35912 ft 464 kts
2026-05-06 05:29 54.51842 23.12714 35939 ft 464 kts
2026-05-06 05:29 54.58201 23.14771 35919 ft 465 kts
2026-05-06 05:30 54.64564 23.16831 35926 ft 465 kts
2026-05-06 05:30 54.70933 23.18900 35921 ft 466 kts
2026-05-06 05:31 54.77267 23.20969 35920 ft 466 kts
2026-05-06 05:31 54.83643 23.23069 35922 ft 466 kts
2026-05-06 05:32 54.90017 23.25172 35935 ft 466 kts
2026-05-06 05:32 54.96390 23.27268 35941 ft 466 kts
2026-05-06 05:33 55.02761 23.29377 35937 ft 466 kts
2026-05-06 05:33 55.09138 23.31496 35935 ft 466 kts
2026-05-06 05:34 55.15480 23.33620 35958 ft 466 kts
2026-05-06 05:34 55.21862 23.35751 35956 ft 466 kts
2026-05-06 05:35 55.28231 23.37879 35951 ft 466 kts
2026-05-06 05:35 55.34595 23.40028 35952 ft 466 kts
2026-05-06 05:36 55.40972 23.42190 35981 ft 466 kts
2026-05-06 05:36 55.47339 23.44336 35971 ft 465 kts
2026-05-06 05:37 55.53664 23.46477 35982 ft 465 kts
2026-05-06 05:37 55.60029 23.48654 35965 ft 466 kts
2026-05-06 05:38 55.66398 23.50847 35998 ft 466 kts
2026-05-06 05:38 55.72766 23.53039 35986 ft 466 kts
2026-05-06 05:39 55.79132 23.55224 35979 ft 466 kts
2026-05-06 05:39 55.85461 23.57412 35975 ft 466 kts
2026-05-06 05:40 55.91833 23.59630 35977 ft 466 kts
2026-05-06 05:40 55.98206 23.61846 36006 ft 465 kts
2026-05-06 05:41 56.04557 23.64061 36000 ft 465 kts
2026-05-06 05:41 56.10903 23.66285 36000 ft 464 kts
2026-05-06 05:42 56.17204 23.68493 35994 ft 464 kts
2026-05-06 05:42 56.23539 23.70730 36013 ft 464 kts
2026-05-06 05:43 56.29873 23.72979 36012 ft 463 kts
2026-05-06 05:43 56.36201 23.75221 36006 ft 463 kts
2026-05-06 05:44 56.42517 23.77579 36004 ft 464 kts
2026-05-06 05:44 56.48824 23.80136 36000 ft 464 kts
2026-05-06 05:45 56.55096 23.82709 35997 ft 464 kts
2026-05-06 05:45 56.61410 23.85228 36013 ft 464 kts
2026-05-06 05:46 56.67737 23.87565 35996 ft 464 kts
2026-05-06 05:46 56.74081 23.89841 36024 ft 464 kts
2026-05-06 05:47 56.80427 23.92169 36001 ft 465 kts
2026-05-06 05:47 56.86731 23.94528 35993 ft 465 kts
2026-05-06 05:48 56.93081 23.96895 35998 ft 465 kts
2026-05-06 05:48 56.99434 23.99070 36003 ft 464 kts
2026-05-06 05:49 57.05791 24.01117 36032 ft 464 kts
2026-05-06 05:49 57.12148 24.03200 36025 ft 464 kts
2026-05-06 05:50 57.18394 24.05312 36022 ft 464 kts
2026-05-06 05:50 57.24745 24.07475 36017 ft 464 kts
2026-05-06 05:51 57.31058 24.09614 36050 ft 463 kts
2026-05-06 05:51 57.37404 24.11758 36038 ft 463 kts
2026-05-06 05:52 57.43742 24.13910 36029 ft 463 kts
2026-05-06 05:52 57.50080 24.16081 36026 ft 463 kts
2026-05-06 05:53 57.56416 24.18257 36067 ft 463 kts
2026-05-06 05:53 57.62762 24.20447 36034 ft 463 kts
2026-05-06 05:54 57.69064 24.22626 36024 ft 463 kts
2026-05-06 05:54 57.75404 24.24833 36018 ft 463 kts
2026-05-06 05:55 57.81745 24.27057 36018 ft 463 kts
2026-05-06 05:55 57.88089 24.29284 36035 ft 464 kts
2026-05-06 05:56 57.93366 24.31125 36029 ft 464 kts
2026-05-06 05:56 57.99717 24.33294 36016 ft 464 kts
2026-05-06 05:57 58.06071 24.35466 36010 ft 464 kts
2026-05-06 05:57 58.12424 24.37646 36054 ft 464 kts
2026-05-06 05:58 58.18790 24.39850 36017 ft 465 kts
2026-05-06 05:58 58.25123 24.42054 36009 ft 465 kts
2026-05-06 05:59 58.31495 24.44285 36005 ft 466 kts
2026-05-06 05:59 58.37871 24.46519 35994 ft 466 kts
2026-05-06 06:00 58.44254 24.48752 36009 ft 467 kts
2026-05-06 06:00 58.50647 24.51012 35995 ft 468 kts
2026-05-06 06:01 58.57016 24.53275 35995 ft 468 kts
2026-05-06 06:01 58.63426 24.55562 36027 ft 468 kts
2026-05-06 06:02 58.69840 24.57844 36030 ft 469 kts
2026-05-06 06:02 58.76276 24.60129 36005 ft 470 kts
2026-05-06 06:03 58.82715 24.62435 35997 ft 471 kts
2026-05-06 06:03 58.89114 24.64742 35990 ft 471 kts
2026-05-06 06:04 58.95561 24.67091 35987 ft 472 kts
2026-05-06 06:04 59.02026 24.69450 36008 ft 472 kts
2026-05-06 06:05 59.08483 24.71792 36000 ft 472 kts
2026-05-06 06:05 59.14949 24.74153 35970 ft 472 kts
2026-05-06 06:06 59.18164 24.75338 34978 ft 471 kts
2026-05-06 06:06 59.21422 24.76530 33435 ft 479 kts
2026-05-06 06:06 59.24714 24.77732 31888 ft 482 kts
2026-05-06 06:06 59.28021 24.78946 30469 ft 483 kts
2026-05-06 06:07 59.31263 24.80155 29128 ft 478 kts
2026-05-06 06:07 59.34511 24.81379 27825 ft 472 kts
2026-05-06 06:07 59.37711 24.82589 26610 ft 464 kts
2026-05-06 06:07 59.40862 24.83916 25444 ft 463 kts
2026-05-06 06:08 59.43892 24.86113 24345 ft 464 kts 14°
2026-05-06 06:08 59.46849 24.88560 23216 ft 458 kts 14°
2026-05-06 06:08 59.49763 24.90983 22042 ft 451 kts 15°
2026-05-06 06:08 59.52636 24.93381 20944 ft 443 kts 15°
2026-05-06 06:09 59.55418 24.95710 19994 ft 435 kts 14°
2026-05-06 06:09 59.58145 24.98001 19539 ft 414 kts 14°
2026-05-06 06:09 59.60754 25.00197 19067 ft 405 kts 14°
2026-05-06 06:09 59.63343 25.02353 18566 ft 403 kts 14°
2026-05-06 06:10 59.65920 25.04494 18038 ft 401 kts 14°
2026-05-06 06:10 59.68488 25.06634 17518 ft 399 kts 14°
2026-05-06 06:10 59.71032 25.08763 17009 ft 396 kts 14°
2026-05-06 06:10 59.73556 25.10881 16498 ft 393 kts 14°
2026-05-06 06:11 59.76067 25.12997 15986 ft 391 kts 15°
2026-05-06 06:11 59.78564 25.15113 15478 ft 389 kts 15°
2026-05-06 06:11 59.81048 25.17219 15018 ft 387 kts 14°
2026-05-06 06:11 59.83474 25.19284 14810 ft 366 kts 14°
2026-05-06 06:12 59.85734 25.21236 14675 ft 342 kts 14°
2026-05-06 06:12 59.87849 25.23062 14289 ft 330 kts 13°
2026-05-06 06:12 59.89966 25.24410 13927 ft 311 kts
2026-05-06 06:12 59.92081 25.24861 13672 ft 299 kts 350°
2026-05-06 06:13 59.94126 25.24644 13387 ft 293 kts 346°
2026-05-06 06:13 59.96163 25.24346 12957 ft 295 kts 347°
2026-05-06 06:13 59.98191 25.24064 12486 ft 289 kts 348°
2026-05-06 06:13 60.00178 25.23795 12105 ft 281 kts 348°
2026-05-06 06:14 60.02059 25.23554 11932 ft 262 kts 348°
2026-05-06 06:14 60.03836 25.23323 11753 ft 251 kts 348°
2026-05-06 06:14 60.05575 25.23073 11619 ft 250 kts 348°
2026-05-06 06:14 60.07302 25.22817 11449 ft 248 kts 348°
2026-05-06 06:15 60.09022 25.22562 11182 ft 247 kts 348°
2026-05-06 06:15 60.10739 25.22314 10899 ft 246 kts 349°
2026-05-06 06:15 60.12445 25.22065 10615 ft 245 kts 350°
2026-05-06 06:15 60.14140 25.21817 10317 ft 244 kts 350°
2026-05-06 06:16 60.15802 25.21575 10034 ft 242 kts 351°
2026-05-06 06:16 60.17478 25.21336 9742 ft 241 kts 351°
2026-05-06 06:16 60.19146 25.21098 9444 ft 239 kts 351°
2026-05-06 06:16 60.20804 25.20858 9163 ft 238 kts 351°
2026-05-06 06:17 60.22451 25.20617 8886 ft 237 kts 352°
2026-05-06 06:17 60.24094 25.20378 8594 ft 236 kts 352°
2026-05-06 06:17 60.25732 25.20144 8319 ft 235 kts 352°
2026-05-06 06:17 60.27364 25.19910 8036 ft 235 kts 352°
2026-05-06 06:18 60.28988 25.19676 7753 ft 233 kts 352°
2026-05-06 06:18 60.30611 25.19887 7520 ft 237 kts 10°
2026-05-06 06:18 60.32137 25.21194 7247 ft 242 kts 30°
2026-05-06 06:18 60.33390 25.23480 6959 ft 245 kts 45°
2026-05-06 06:19 60.34529 25.26027 6672 ft 244 kts 45°
2026-05-06 06:19 60.35666 25.28558 6377 ft 243 kts 44°
2026-05-06 06:19 60.36798 25.31083 6076 ft 242 kts 44°
2026-05-06 06:19 60.37920 25.33606 5780 ft 240 kts 46°
2026-05-06 06:20 60.38980 25.36156 5561 ft 237 kts 47°
2026-05-06 06:20 60.40033 25.38750 5426 ft 241 kts 47°
2026-05-06 06:20 60.41090 25.41367 5164 ft 239 kts 47°
2026-05-06 06:20 60.42156 25.43932 4898 ft 237 kts 43°
2026-05-06 06:21 60.43419 25.45982 4641 ft 230 kts 20°
2026-05-06 06:21 60.44929 25.46937 4366 ft 227 kts
2026-05-06 06:21 60.46476 25.47154 4097 ft 221 kts 349°
2026-05-06 06:21 60.47917 25.46198 3834 ft 217 kts 328°
2026-05-06 06:22 60.49077 25.44293 3578 ft 215 kts 309°
2026-05-06 06:22 60.49818 25.41696 3355 ft 213 kts 289°
2026-05-06 06:22 60.50055 25.38729 3233 ft 214 kts 270°
2026-05-06 06:22 60.49763 25.35825 3080 ft 209 kts 249°
2026-05-06 06:23 60.49007 25.33373 2989 ft 203 kts 231°
2026-05-06 06:23 60.48080 25.31310 2991 ft 193 kts 231°
2026-05-06 06:23 60.47202 25.29338 3002 ft 187 kts 231°
2026-05-06 06:23 60.46333 25.27393 3024 ft 181 kts 232°
2026-05-06 06:24 60.45524 25.25588 3009 ft 164 kts 232°
2026-05-06 06:24 60.44783 25.23930 2999 ft 154 kts 232°
2026-05-06 06:24 60.44088 25.22378 2997 ft 146 kts 232°
2026-05-06 06:24 60.43414 25.20873 3006 ft 143 kts 233°
2026-05-06 06:25 60.42743 25.19376 2964 ft 143 kts 232°
2026-05-06 06:25 60.42073 25.17881 2839 ft 144 kts 232°
2026-05-06 06:25 60.40721 25.14870 2477 ft 147 kts 233°
2026-05-06 06:26 60.40024 25.13321 2267 ft 151 kts 232°
2026-05-06 06:26 60.39314 25.11743 2085 ft 151 kts 231°
2026-05-06 06:26 60.38625 25.10218 1895 ft 141 kts 232°
2026-05-06 06:26 60.37987 25.08804 1692 ft 133 kts 232°
2026-05-06 06:27 60.37367 25.07428 1501 ft 131 kts 232°
2026-05-06 06:27 60.36763 25.06088 1321 ft 130 kts 232°
2026-05-06 06:27 60.36152 25.04735 1128 ft 129 kts 231°
2026-05-06 06:27 60.35546 25.03393 952 ft 129 kts 231°
2026-05-06 06:28 60.34943 25.02058 752 ft 129 kts 229°
2026-05-06 06:28 60.34336 25.00716 590 ft 129 kts 229°
2026-05-06 06:28 60.33740 24.99391 399 ft 128 kts 229°
2026-05-06 06:28 60.33151 24.98073 252 ft 125 kts 229°
2026-05-06 06:29 60.32565 24.96783 177 ft 119 kts 229°
2026-05-06 06:29 60.32088 24.95731 161 ft 69 kts 227°
2026-05-06 06:29 60.31947 24.95428 158 ft 12 kts 225°
2026-05-06 06:29 60.31865 24.95310 159 ft 15 kts 198°
2026-05-06 06:30 60.31768 24.95246 159 ft 12 kts 200°
2026-05-06 06:30 60.31673 24.95186 158 ft 15 kts 191°
2026-05-06 06:30 60.31600 24.95224 157 ft 10 kts 213°
2026-05-06 06:30 60.31532 24.95131 157 ft 14 kts 182°
2026-05-06 06:31 60.31458 24.95251 158 ft 14 kts 139°
2026-05-06 06:31 60.31470 24.95392 159 ft 10 kts 49°
2026-05-06 06:31 60.31455 24.95437 159 ft 3 kts 144°
2026-05-06 06:31 60.31431 24.95481 160 ft 5 kts 136°
2026-05-06 06:32 60.31413 24.95515 160 ft 1 kts 137°
2026-05-06 06:32 60.31412 24.95517 160 ft 0 kts 137°